Year,Month,Day,Hour,Minute,Value (Times are PST for temperature in C)
2015,06,29,00,00,19.30
2015,06,29,00,01,19.30
2015,06,29,00,02,19.30
2015,06,29,00,03,19.30
2015,06,29,00,04,19.30
2015,06,29,00,05,19.30
2015,06,29,00,06,19.30
2015,06,29,00,07,19.40
2015,06,29,00,08,19.40
2015,06,29,00,09,19.40
2015,06,29,00,10,19.40
2015,06,29,00,11,19.40
2015,06,29,00,12,19.40
2015,06,29,00,13,19.40
2015,06,29,00,14,19.40
2015,06,29,00,15,19.40
2015,06,29,00,16,19.40
2015,06,29,00,17,19.40
2015,06,29,00,18,19.40
2015,06,29,00,19,19.40
2015,06,29,00,20,19.40
2015,06,29,00,21,19.40
2015,06,29,00,22,19.40
2015,06,29,00,23,19.30
2015,06,29,00,24,19.30
2015,06,29,00,25,19.30
2015,06,29,00,26,19.30
2015,06,29,00,27,19.30
2015,06,29,00,28,19.20
2015,06,29,00,29,19.20
2015,06,29,00,30,19.20
2015,06,29,00,31,19.20
2015,06,29,00,32,19.20
2015,06,29,00,33,19.20
2015,06,29,00,34,19.20
2015,06,29,00,35,19.20
2015,06,29,00,36,19.20
2015,06,29,00,37,19.10
2015,06,29,00,38,19.10
2015,06,29,00,39,19.10
2015,06,29,00,40,19.10
2015,06,29,00,41,19.10
2015,06,29,00,42,19.10
2015,06,29,00,43,19.10
2015,06,29,00,44,19.10
2015,06,29,00,45,19.10
2015,06,29,00,46,19.10
2015,06,29,00,47,19.10
2015,06,29,00,48,19.10
2015,06,29,00,49,19.10
2015,06,29,00,50,19.10
2015,06,29,00,51,19.10
2015,06,29,00,52,19.10
2015,06,29,00,53,19.10
2015,06,29,00,54,19.10
2015,06,29,00,55,19.20
2015,06,29,00,56,19.20
2015,06,29,00,57,19.20
2015,06,29,00,58,19.20
2015,06,29,00,59,19.20
2015,06,29,01,00,19.20
2015,06,29,01,01,19.20
2015,06,29,01,02,19.20
2015,06,29,01,03,19.20
2015,06,29,01,04,19.20
2015,06,29,01,05,19.20
2015,06,29,01,06,19.20
2015,06,29,01,07,19.20
2015,06,29,01,08,19.20
2015,06,29,01,09,19.20
2015,06,29,01,10,19.20
2015,06,29,01,11,19.10
2015,06,29,01,12,19.10
2015,06,29,01,13,19.10
2015,06,29,01,14,19.10
2015,06,29,01,15,19.10
2015,06,29,01,16,19.10
2015,06,29,01,17,19.00
2015,06,29,01,18,19.00
2015,06,29,01,19,19.00
2015,06,29,01,20,19.00
2015,06,29,01,21,19.00
2015,06,29,01,22,18.90
2015,06,29,01,23,18.90
2015,06,29,01,24,18.90
2015,06,29,01,25,18.90
2015,06,29,01,26,18.90
2015,06,29,01,27,18.90
2015,06,29,01,28,18.80
2015,06,29,01,29,18.80
2015,06,29,01,30,18.80
2015,06,29,01,31,18.80
2015,06,29,01,32,18.80
2015,06,29,01,33,18.80
2015,06,29,01,34,18.70
2015,06,29,01,35,18.70
2015,06,29,01,36,18.70
2015,06,29,01,37,18.70
2015,06,29,01,38,18.70
2015,06,29,01,39,18.70
2015,06,29,01,40,18.70
2015,06,29,01,41,18.70
2015,06,29,01,42,18.70
2015,06,29,01,43,18.60
2015,06,29,01,44,18.60
2015,06,29,01,45,18.60
2015,06,29,01,46,18.60
2015,06,29,01,47,18.60
2015,06,29,01,48,18.60
2015,06,29,01,49,18.60
2015,06,29,01,50,18.50
2015,06,29,01,51,18.50
2015,06,29,01,52,18.50
2015,06,29,01,53,18.50
2015,06,29,01,54,18.50
2015,06,29,01,55,18.50
2015,06,29,01,56,18.50
2015,06,29,01,57,18.50
2015,06,29,01,58,18.50
2015,06,29,01,59,18.50
2015,06,29,02,00,18.50
2015,06,29,02,01,18.50
2015,06,29,02,02,18.50
2015,06,29,02,03,18.50
2015,06,29,02,04,18.50
2015,06,29,02,05,18.60
2015,06,29,02,06,18.60
2015,06,29,02,07,18.60
2015,06,29,02,08,18.60
2015,06,29,02,09,18.60
2015,06,29,02,10,18.60
2015,06,29,02,11,18.60
2015,06,29,02,12,18.60
2015,06,29,02,13,18.60
2015,06,29,02,14,18.60
2015,06,29,02,15,18.60
2015,06,29,02,16,18.70
2015,06,29,02,17,18.70
2015,06,29,02,18,18.70
2015,06,29,02,19,18.70
2015,06,29,02,20,18.80
2015,06,29,02,21,18.80
2015,06,29,02,22,18.80
2015,06,29,02,23,18.80
2015,06,29,02,24,18.90
2015,06,29,02,25,18.90
2015,06,29,02,26,18.90
2015,06,29,02,27,18.90
2015,06,29,02,28,18.90
2015,06,29,02,29,19.00
2015,06,29,02,30,19.00
2015,06,29,02,31,19.00
2015,06,29,02,32,19.10
2015,06,29,02,33,19.10
2015,06,29,02,34,19.10
2015,06,29,02,35,19.10
2015,06,29,02,36,19.10
2015,06,29,02,37,19.20
2015,06,29,02,38,19.20
2015,06,29,02,39,19.20
2015,06,29,02,40,19.20
2015,06,29,02,41,19.20
2015,06,29,02,42,19.20
2015,06,29,02,43,19.20
2015,06,29,02,44,19.20
2015,06,29,02,45,19.20
2015,06,29,02,46,19.20
2015,06,29,02,47,19.20
2015,06,29,02,48,19.30
2015,06,29,02,49,19.30
2015,06,29,02,50,19.30
2015,06,29,02,51,19.30
2015,06,29,02,52,19.30
2015,06,29,02,53,19.30
2015,06,29,02,54,19.30
2015,06,29,02,55,19.30
2015,06,29,02,56,19.30
2015,06,29,02,57,19.30
2015,06,29,02,58,19.30
2015,06,29,02,59,19.30
2015,06,29,03,00,19.30
2015,06,29,03,01,19.30
2015,06,29,03,02,19.30
2015,06,29,03,03,19.30
2015,06,29,03,04,19.30
2015,06,29,03,05,19.30
2015,06,29,03,06,19.30
2015,06,29,03,07,19.30
2015,06,29,03,08,19.30
2015,06,29,03,09,19.30
2015,06,29,03,10,19.40
2015,06,29,03,11,19.40
2015,06,29,03,12,19.40
2015,06,29,03,13,19.30
2015,06,29,03,14,19.30
2015,06,29,03,15,19.30
2015,06,29,03,16,19.30
2015,06,29,03,17,19.30
2015,06,29,03,18,19.30
2015,06,29,03,19,19.30
2015,06,29,03,20,19.20
2015,06,29,03,21,19.20
2015,06,29,03,22,19.20
2015,06,29,03,23,19.20
2015,06,29,03,24,19.20
2015,06,29,03,25,19.10
2015,06,29,03,26,19.10
2015,06,29,03,27,19.10
2015,06,29,03,28,19.10
2015,06,29,03,29,19.10
2015,06,29,03,30,19.00
2015,06,29,03,31,19.00
2015,06,29,03,32,19.00
2015,06,29,03,33,18.90
2015,06,29,03,34,18.90
2015,06,29,03,35,18.90
2015,06,29,03,36,18.90
2015,06,29,03,37,18.90
2015,06,29,03,38,18.90
2015,06,29,03,39,18.90
2015,06,29,03,40,18.90
2015,06,29,03,41,18.90
2015,06,29,03,42,18.90
2015,06,29,03,43,18.90
2015,06,29,03,44,18.90
2015,06,29,03,45,18.90
2015,06,29,03,46,18.80
2015,06,29,03,47,18.80
2015,06,29,03,48,18.80
2015,06,29,03,49,18.80
2015,06,29,03,50,18.70
2015,06,29,03,51,18.70
2015,06,29,03,52,18.60
2015,06,29,03,53,18.60
2015,06,29,03,54,18.50
2015,06,29,03,55,18.50
2015,06,29,03,56,18.40
2015,06,29,03,57,18.40
2015,06,29,03,58,18.30
2015,06,29,03,59,18.30
2015,06,29,04,00,18.20
2015,06,29,04,01,18.20
2015,06,29,04,02,18.20
2015,06,29,04,03,18.20
2015,06,29,04,04,18.10
2015,06,29,04,05,18.10
2015,06,29,04,06,18.10
2015,06,29,04,07,18.10
2015,06,29,04,08,18.00
2015,06,29,04,09,18.00
2015,06,29,04,10,18.00
2015,06,29,04,11,17.90
2015,06,29,04,12,17.90
2015,06,29,04,13,17.90
2015,06,29,04,14,17.90
2015,06,29,04,15,17.90
2015,06,29,04,16,17.90
2015,06,29,04,17,17.90
2015,06,29,04,18,17.90
2015,06,29,04,19,17.80
2015,06,29,04,20,17.90
2015,06,29,04,21,17.90
2015,06,29,04,22,17.90
2015,06,29,04,23,17.90
2015,06,29,04,24,17.90
2015,06,29,04,25,17.90
2015,06,29,04,26,17.90
2015,06,29,04,27,17.90
2015,06,29,04,28,17.90
2015,06,29,04,29,17.90
2015,06,29,04,30,17.90
2015,06,29,04,31,17.90
2015,06,29,04,32,17.90
2015,06,29,04,33,17.80
2015,06,29,04,34,17.80
2015,06,29,04,35,17.80
2015,06,29,04,36,17.90
2015,06,29,04,37,17.90
2015,06,29,04,38,17.90
2015,06,29,04,39,17.90
2015,06,29,04,40,17.90
2015,06,29,04,41,17.90
2015,06,29,04,42,17.90
2015,06,29,04,43,17.90
2015,06,29,04,44,17.90
2015,06,29,04,45,17.90
2015,06,29,04,46,17.90
2015,06,29,04,47,17.90
2015,06,29,04,48,17.90
2015,06,29,04,49,17.90
2015,06,29,04,50,17.90
2015,06,29,04,51,17.90
2015,06,29,04,52,17.90
2015,06,29,04,53,17.90
2015,06,29,04,54,17.80
2015,06,29,04,55,17.80
2015,06,29,04,56,17.80
2015,06,29,04,57,17.80
2015,06,29,04,58,17.70
2015,06,29,04,59,17.70
2015,06,29,05,00,17.70
2015,06,29,05,01,17.70
2015,06,29,05,02,17.60
2015,06,29,05,03,17.60
2015,06,29,05,04,17.60
2015,06,29,05,05,17.50
2015,06,29,05,06,17.50
2015,06,29,05,07,17.50
2015,06,29,05,08,17.50
2015,06,29,05,09,17.40
2015,06,29,05,10,17.40
2015,06,29,05,11,17.40
2015,06,29,05,12,17.40
2015,06,29,05,13,17.40
2015,06,29,05,14,17.30
2015,06,29,05,15,17.30
2015,06,29,05,16,17.30
2015,06,29,05,17,17.30
2015,06,29,05,18,17.30
2015,06,29,05,19,17.30
2015,06,29,05,20,17.30
2015,06,29,05,21,17.20
2015,06,29,05,22,17.20
2015,06,29,05,23,17.20
2015,06,29,05,24,17.20
2015,06,29,05,25,17.20
2015,06,29,05,26,17.20
2015,06,29,05,27,17.20
2015,06,29,05,28,17.20
2015,06,29,05,29,17.20
2015,06,29,05,30,17.20
2015,06,29,05,31,17.20
2015,06,29,05,32,17.20
2015,06,29,05,33,17.20
2015,06,29,05,34,17.20
2015,06,29,05,35,17.20
2015,06,29,05,36,17.30
2015,06,29,05,37,17.30
2015,06,29,05,38,17.30
2015,06,29,05,39,17.40
2015,06,29,05,40,17.40
2015,06,29,05,41,17.40
2015,06,29,05,42,17.40
2015,06,29,05,43,17.40
2015,06,29,05,44,17.40
2015,06,29,05,45,17.40
2015,06,29,05,46,17.50
2015,06,29,05,47,17.50
2015,06,29,05,48,17.50
2015,06,29,05,49,17.50
2015,06,29,05,50,17.50
2015,06,29,05,51,17.50
2015,06,29,05,52,17.40
2015,06,29,05,53,17.40
2015,06,29,05,54,17.40
2015,06,29,05,55,17.40
2015,06,29,05,56,17.40
2015,06,29,05,57,17.40
2015,06,29,05,58,17.30
2015,06,29,05,59,17.30
2015,06,29,06,00,17.30
2015,06,29,06,01,17.20
2015,06,29,06,02,17.10
2015,06,29,06,03,17.00
2015,06,29,06,04,16.80
2015,06,29,06,05,16.70
2015,06,29,06,06,16.60
2015,06,29,06,07,16.50
2015,06,29,06,08,16.40
2015,06,29,06,09,16.30
2015,06,29,06,10,16.30
2015,06,29,06,11,16.20
2015,06,29,06,12,16.10
2015,06,29,06,13,16.10
2015,06,29,06,14,16.00
2015,06,29,06,15,15.90
2015,06,29,06,16,15.90
2015,06,29,06,17,15.80
2015,06,29,06,18,15.80
2015,06,29,06,19,15.70
2015,06,29,06,20,15.60
2015,06,29,06,21,15.60
2015,06,29,06,22,15.60
2015,06,29,06,23,15.50
2015,06,29,06,24,15.50
2015,06,29,06,25,15.40
2015,06,29,06,26,15.40
2015,06,29,06,27,15.40
2015,06,29,06,28,15.40
2015,06,29,06,29,15.40
2015,06,29,06,30,15.40
2015,06,29,06,31,15.40
2015,06,29,06,32,15.40
2015,06,29,06,33,15.40
2015,06,29,06,34,15.40
2015,06,29,06,35,15.40
2015,06,29,06,36,15.40
2015,06,29,06,37,15.40
2015,06,29,06,38,15.40
2015,06,29,06,39,15.50
2015,06,29,06,40,15.50
2015,06,29,06,41,15.50
2015,06,29,06,42,15.50
2015,06,29,06,43,15.50
2015,06,29,06,44,15.50
2015,06,29,06,45,15.50
2015,06,29,06,46,15.50
2015,06,29,06,47,15.50
2015,06,29,06,48,15.50
2015,06,29,06,49,15.50
2015,06,29,06,50,15.50
2015,06,29,06,51,15.50
2015,06,29,06,52,15.60
2015,06,29,06,53,15.60
2015,06,29,06,54,15.60
2015,06,29,06,55,15.60
2015,06,29,06,56,15.60
2015,06,29,06,57,15.60
2015,06,29,06,58,15.70
2015,06,29,06,59,15.70
2015,06,29,07,00,15.70
2015,06,29,07,01,15.70
2015,06,29,07,02,15.80
2015,06,29,07,03,15.80
2015,06,29,07,04,15.80
2015,06,29,07,05,15.90
2015,06,29,07,06,15.90
2015,06,29,07,07,15.90
2015,06,29,07,08,16.00
2015,06,29,07,09,16.00
2015,06,29,07,10,16.10
2015,06,29,07,11,16.10
2015,06,29,07,12,16.10
2015,06,29,07,13,16.20
2015,06,29,07,14,16.20
2015,06,29,07,15,16.30
2015,06,29,07,16,16.40
2015,06,29,07,17,16.40
2015,06,29,07,18,16.50
2015,06,29,07,19,16.60
2015,06,29,07,20,16.70
2015,06,29,07,21,16.80
2015,06,29,07,22,16.90
2015,06,29,07,23,16.90
2015,06,29,07,24,17.00
2015,06,29,07,25,17.20
2015,06,29,07,26,17.30
2015,06,29,07,27,17.40
2015,06,29,07,28,17.40
2015,06,29,07,29,17.50
2015,06,29,07,30,17.70
2015,06,29,07,31,17.80
2015,06,29,07,32,17.90
2015,06,29,07,33,18.00
2015,06,29,07,34,18.10
2015,06,29,07,35,18.30
2015,06,29,07,36,18.40
2015,06,29,07,37,18.60
2015,06,29,07,38,18.80
2015,06,29,07,39,18.90
2015,06,29,07,40,19.10
2015,06,29,07,41,19.30
2015,06,29,07,42,19.40
2015,06,29,07,43,19.50
2015,06,29,07,44,19.60
2015,06,29,07,45,19.70
2015,06,29,07,46,19.80
2015,06,29,07,47,19.90
2015,06,29,07,48,20.00
2015,06,29,07,49,20.00
2015,06,29,07,50,20.10
2015,06,29,07,51,20.20
2015,06,29,07,52,20.30
2015,06,29,07,53,20.30
2015,06,29,07,54,20.30
2015,06,29,07,55,20.40
2015,06,29,07,56,20.40
2015,06,29,07,57,20.50
2015,06,29,07,58,20.50
2015,06,29,07,59,20.60
2015,06,29,08,00,20.60
2015,06,29,08,01,20.70
2015,06,29,08,02,20.80
2015,06,29,08,03,20.80
2015,06,29,08,04,20.90
2015,06,29,08,05,21.00
2015,06,29,08,06,21.00
2015,06,29,08,07,21.10
2015,06,29,08,08,21.10
2015,06,29,08,09,21.20
2015,06,29,08,10,21.20
2015,06,29,08,11,21.30
2015,06,29,08,12,21.30
2015,06,29,08,13,21.40
2015,06,29,08,14,21.50
2015,06,29,08,15,21.50
2015,06,29,08,16,21.60
2015,06,29,08,17,21.60
2015,06,29,08,18,21.60
2015,06,29,08,19,21.70
2015,06,29,08,20,21.70
2015,06,29,08,21,21.70
2015,06,29,08,22,21.70
2015,06,29,08,23,21.70
2015,06,29,08,24,21.60
2015,06,29,08,25,21.50
2015,06,29,08,26,21.30
2015,06,29,08,27,21.20
2015,06,29,08,28,21.00
2015,06,29,08,29,20.80
2015,06,29,08,30,20.70
2015,06,29,08,31,20.50
2015,06,29,08,32,20.30
2015,06,29,08,33,20.00
2015,06,29,08,34,19.70
2015,06,29,08,35,19.50
2015,06,29,08,36,19.40
2015,06,29,08,37,19.30
2015,06,29,08,38,19.20
2015,06,29,08,39,19.20
2015,06,29,08,40,19.10
2015,06,29,08,41,19.00
2015,06,29,08,42,18.90
2015,06,29,08,43,18.90
2015,06,29,08,44,18.80
2015,06,29,08,45,18.90
2015,06,29,08,46,18.90
2015,06,29,08,47,19.00
2015,06,29,08,48,19.00
2015,06,29,08,49,19.10
2015,06,29,08,50,19.00
2015,06,29,08,51,19.00
2015,06,29,08,52,18.90
2015,06,29,08,53,18.90
2015,06,29,08,54,18.80
2015,06,29,08,55,18.80
2015,06,29,08,56,18.80
2015,06,29,08,57,18.80
2015,06,29,08,58,18.70
2015,06,29,08,59,18.70
2015,06,29,09,00,18.70
2015,06,29,09,01,18.70
2015,06,29,09,02,18.60
2015,06,29,09,03,18.50
2015,06,29,09,04,18.40
2015,06,29,09,05,18.40
2015,06,29,09,06,18.40
2015,06,29,09,07,18.40
2015,06,29,09,08,18.30
2015,06,29,09,09,18.30
2015,06,29,09,10,18.30
2015,06,29,09,11,18.30
2015,06,29,09,12,18.20
2015,06,29,09,13,18.20
2015,06,29,09,14,18.20
2015,06,29,09,15,18.20
2015,06,29,09,16,18.10
2015,06,29,09,17,18.10
2015,06,29,09,18,18.10
2015,06,29,09,19,18.00
2015,06,29,09,20,17.90
2015,06,29,09,21,17.90
2015,06,29,09,22,17.90
2015,06,29,09,23,17.90
2015,06,29,09,24,17.90
2015,06,29,09,25,17.90
2015,06,29,09,26,17.80
2015,06,29,09,27,17.80
2015,06,29,09,28,17.80
2015,06,29,09,29,17.80
2015,06,29,09,30,17.80
2015,06,29,09,31,17.80
2015,06,29,09,32,17.90
2015,06,29,09,33,17.90
2015,06,29,09,34,18.00
2015,06,29,09,35,18.00
2015,06,29,09,36,18.00
2015,06,29,09,37,18.10
2015,06,29,09,38,18.10
2015,06,29,09,39,18.20
2015,06,29,09,40,18.30
2015,06,29,09,41,18.40
2015,06,29,09,42,18.60
2015,06,29,09,43,18.70
2015,06,29,09,44,18.80
2015,06,29,09,45,18.90
2015,06,29,09,46,18.90
2015,06,29,09,47,19.00
2015,06,29,09,48,19.10
2015,06,29,09,49,19.20
2015,06,29,09,50,19.30
2015,06,29,09,51,19.40
2015,06,29,09,52,19.50
2015,06,29,09,53,19.50
2015,06,29,09,54,19.60
2015,06,29,09,55,19.70
2015,06,29,09,56,19.70
2015,06,29,09,57,19.80
2015,06,29,09,58,19.80
2015,06,29,09,59,19.90
2015,06,29,10,00,19.90
2015,06,29,10,01,20.00
2015,06,29,10,02,20.10
2015,06,29,10,03,20.20
2015,06,29,10,04,20.30
2015,06,29,10,05,20.40
2015,06,29,10,06,20.50
2015,06,29,10,07,20.60
2015,06,29,10,08,20.70
2015,06,29,10,09,20.80
2015,06,29,10,10,20.90
2015,06,29,10,11,20.90
2015,06,29,10,12,21.00
2015,06,29,10,13,21.10
2015,06,29,10,14,21.20
2015,06,29,10,15,21.20
2015,06,29,10,16,21.20
2015,06,29,10,17,21.20
2015,06,29,10,18,21.30
2015,06,29,10,19,21.30
2015,06,29,10,20,21.20
2015,06,29,10,21,21.20
2015,06,29,10,22,21.20
2015,06,29,10,23,21.30
2015,06,29,10,24,21.30
2015,06,29,10,25,21.30
2015,06,29,10,26,21.30
2015,06,29,10,27,21.30
2015,06,29,10,28,21.40
2015,06,29,10,29,21.40
2015,06,29,10,30,21.50
2015,06,29,10,31,21.50
2015,06,29,10,32,21.50
2015,06,29,10,33,21.50
2015,06,29,10,34,21.50
2015,06,29,10,35,21.50
2015,06,29,10,36,21.60
2015,06,29,10,37,21.70
2015,06,29,10,38,21.70
2015,06,29,10,39,21.80
2015,06,29,10,40,21.80
2015,06,29,10,41,21.80
2015,06,29,10,42,21.80
2015,06,29,10,43,21.90
2015,06,29,10,44,22.00
2015,06,29,10,45,22.20
2015,06,29,10,46,22.20
2015,06,29,10,47,22.40
2015,06,29,10,48,22.50
2015,06,29,10,49,22.60
2015,06,29,10,50,22.80
2015,06,29,10,51,22.90
2015,06,29,10,52,23.00
2015,06,29,10,53,23.10
2015,06,29,10,54,23.10
2015,06,29,10,55,23.20
2015,06,29,10,56,23.20
2015,06,29,10,57,23.20
2015,06,29,10,58,23.30
2015,06,29,10,59,23.40
2015,06,29,11,00,23.50
2015,06,29,11,01,23.60
2015,06,29,11,02,23.60
2015,06,29,11,03,23.70
2015,06,29,11,04,23.70
2015,06,29,11,05,23.80
2015,06,29,11,06,23.80
2015,06,29,11,07,23.80
2015,06,29,11,08,23.90
2015,06,29,11,09,23.80
2015,06,29,11,10,23.80
2015,06,29,11,11,23.80
2015,06,29,11,12,23.80
2015,06,29,11,13,23.80
2015,06,29,11,14,23.70
2015,06,29,11,15,23.70
2015,06,29,11,16,23.70
2015,06,29,11,17,23.60
2015,06,29,11,18,23.50
2015,06,29,11,19,23.40
2015,06,29,11,20,23.30
2015,06,29,11,21,23.30
2015,06,29,11,22,23.30
2015,06,29,11,23,23.40
2015,06,29,11,24,23.50
2015,06,29,11,25,23.60
2015,06,29,11,26,23.60
2015,06,29,11,27,23.50
2015,06,29,11,28,23.40
2015,06,29,11,29,23.30
2015,06,29,11,30,23.30
2015,06,29,11,31,23.30
2015,06,29,11,32,23.30
2015,06,29,11,33,23.40
2015,06,29,11,34,23.50
2015,06,29,11,35,23.60
2015,06,29,11,36,23.70
2015,06,29,11,37,23.80
2015,06,29,11,38,23.80
2015,06,29,11,39,23.80
2015,06,29,11,40,23.70
2015,06,29,11,41,23.60
2015,06,29,11,42,23.60
2015,06,29,11,43,23.60
2015,06,29,11,44,23.60
2015,06,29,11,45,23.60
2015,06,29,11,46,23.60
2015,06,29,11,47,23.60
2015,06,29,11,48,23.60
2015,06,29,11,49,23.60
2015,06,29,11,50,23.70
2015,06,29,11,51,23.80
2015,06,29,11,52,23.90
2015,06,29,11,53,23.90
2015,06,29,11,54,24.00
2015,06,29,11,55,24.10
2015,06,29,11,56,24.20
2015,06,29,11,57,24.30
2015,06,29,11,58,24.40
2015,06,29,11,59,24.40
2015,06,29,12,00,24.60
2015,06,29,12,01,24.70
2015,06,29,12,02,24.90
2015,06,29,12,03,25.10
2015,06,29,12,04,25.30
2015,06,29,12,05,25.50
2015,06,29,12,06,25.60
2015,06,29,12,07,25.70
2015,06,29,12,08,25.70
2015,06,29,12,09,25.80
2015,06,29,12,10,25.90
2015,06,29,12,11,25.90
2015,06,29,12,12,25.90
2015,06,29,12,13,25.70
2015,06,29,12,14,25.50
2015,06,29,12,15,25.30
2015,06,29,12,16,25.10
2015,06,29,12,17,24.90
2015,06,29,12,18,24.70
2015,06,29,12,19,24.50
2015,06,29,12,20,24.40
2015,06,29,12,21,24.30
2015,06,29,12,22,24.20
2015,06,29,12,23,24.10
2015,06,29,12,24,24.00
2015,06,29,12,25,23.90
2015,06,29,12,26,23.80
2015,06,29,12,27,23.80
2015,06,29,12,28,23.80
2015,06,29,12,29,23.70
2015,06,29,12,30,23.60
2015,06,29,12,31,23.60
2015,06,29,12,32,23.60
2015,06,29,12,33,23.60
2015,06,29,12,34,23.60
2015,06,29,12,35,23.60
2015,06,29,12,36,23.50
2015,06,29,12,37,23.50
2015,06,29,12,38,23.50
2015,06,29,12,39,23.40
2015,06,29,12,40,23.20
2015,06,29,12,41,23.00
2015,06,29,12,42,22.80
2015,06,29,12,43,22.70
2015,06,29,12,44,22.70
2015,06,29,12,45,22.60
2015,06,29,12,46,22.70
2015,06,29,12,47,22.70
2015,06,29,12,48,22.80
2015,06,29,12,49,22.80
2015,06,29,12,50,22.90
2015,06,29,12,51,23.00
2015,06,29,12,52,23.10
2015,06,29,12,53,23.20
2015,06,29,12,54,23.30
2015,06,29,12,55,23.50
2015,06,29,12,56,23.60
2015,06,29,12,57,23.80
2015,06,29,12,58,24.00
2015,06,29,12,59,24.20
2015,06,29,13,00,24.30
2015,06,29,13,01,24.50
2015,06,29,13,02,24.50
2015,06,29,13,03,24.60
2015,06,29,13,04,24.70
2015,06,29,13,05,24.80
2015,06,29,13,06,24.80
2015,06,29,13,07,24.80
2015,06,29,13,08,24.80
2015,06,29,13,09,24.70
2015,06,29,13,10,24.50
2015,06,29,13,11,24.40
2015,06,29,13,12,24.30
2015,06,29,13,13,24.20
2015,06,29,13,14,24.20
2015,06,29,13,15,24.20
2015,06,29,13,16,24.20
2015,06,29,13,17,24.10
2015,06,29,13,18,24.00
2015,06,29,13,19,23.90
2015,06,29,13,20,23.90
2015,06,29,13,21,23.90
2015,06,29,13,22,23.90
2015,06,29,13,23,24.00
2015,06,29,13,24,24.10
2015,06,29,13,25,24.20
2015,06,29,13,26,24.20
2015,06,29,13,27,24.20
2015,06,29,13,28,24.20
2015,06,29,13,29,24.20
2015,06,29,13,30,24.00
2015,06,29,13,31,23.90
2015,06,29,13,32,23.80
2015,06,29,13,33,23.80
2015,06,29,13,34,23.80
2015,06,29,13,35,23.80
2015,06,29,13,36,23.70
2015,06,29,13,37,23.60
2015,06,29,13,38,23.60
2015,06,29,13,39,23.50
2015,06,29,13,40,23.40
2015,06,29,13,41,23.30
2015,06,29,13,42,23.20
2015,06,29,13,43,23.10
2015,06,29,13,44,23.00
2015,06,29,13,45,22.90
2015,06,29,13,46,22.90
2015,06,29,13,47,22.80
2015,06,29,13,48,22.80
2015,06,29,13,49,22.90
2015,06,29,13,50,23.00
2015,06,29,13,51,23.00
2015,06,29,13,52,23.00
2015,06,29,13,53,23.10
2015,06,29,13,54,23.10
2015,06,29,13,55,23.10
2015,06,29,13,56,23.00
2015,06,29,13,57,23.00
2015,06,29,13,58,23.00
2015,06,29,13,59,23.00
2015,06,29,14,00,23.10
2015,06,29,14,01,23.10
2015,06,29,14,02,23.20
2015,06,29,14,03,23.40
2015,06,29,14,04,23.60
2015,06,29,14,05,23.70
2015,06,29,14,06,24.00
2015,06,29,14,07,24.30
2015,06,29,14,08,24.70
2015,06,29,14,09,25.00
2015,06,29,14,10,25.40
2015,06,29,14,11,25.80
2015,06,29,14,12,26.10
2015,06,29,14,13,26.50
2015,06,29,14,14,26.80
2015,06,29,14,15,27.20
2015,06,29,14,16,27.50
2015,06,29,14,17,27.60
2015,06,29,14,18,27.80
2015,06,29,14,19,28.00
2015,06,29,14,20,28.20
2015,06,29,14,21,28.40
2015,06,29,14,22,28.60
2015,06,29,14,23,28.70
2015,06,29,14,24,28.90
2015,06,29,14,25,29.00
2015,06,29,14,26,29.10
2015,06,29,14,27,29.20
2015,06,29,14,28,29.30
2015,06,29,14,29,29.40
2015,06,29,14,30,29.40
2015,06,29,14,31,29.50
2015,06,29,14,32,29.60
2015,06,29,14,33,29.60
2015,06,29,14,34,29.70
2015,06,29,14,35,29.70
2015,06,29,14,36,29.70
2015,06,29,14,37,29.70
2015,06,29,14,38,29.70
2015,06,29,14,39,29.80
2015,06,29,14,40,29.80
2015,06,29,14,41,29.70
2015,06,29,14,42,29.50
2015,06,29,14,43,29.40
2015,06,29,14,44,29.30
2015,06,29,14,45,29.30
2015,06,29,14,46,29.30
2015,06,29,14,47,29.30
2015,06,29,14,48,29.40
2015,06,29,14,49,29.40
2015,06,29,14,50,29.50
2015,06,29,14,51,29.60
2015,06,29,14,52,29.60
2015,06,29,14,53,29.70
2015,06,29,14,54,29.70
2015,06,29,14,55,29.70
2015,06,29,14,56,29.70
2015,06,29,14,57,29.70
2015,06,29,14,58,29.70
2015,06,29,14,59,29.70
2015,06,29,15,00,29.80
2015,06,29,15,01,29.80
2015,06,29,15,02,29.80
2015,06,29,15,03,29.70
2015,06,29,15,04,29.70
2015,06,29,15,05,29.70
2015,06,29,15,06,29.80
2015,06,29,15,07,29.80
2015,06,29,15,08,29.80
2015,06,29,15,09,29.80
2015,06,29,15,10,29.80
2015,06,29,15,11,29.80
2015,06,29,15,12,29.80
2015,06,29,15,13,29.80
2015,06,29,15,14,29.80
2015,06,29,15,15,29.80
2015,06,29,15,16,29.90
2015,06,29,15,17,30.00
2015,06,29,15,18,30.10
2015,06,29,15,19,30.20
2015,06,29,15,20,30.30
2015,06,29,15,21,30.30
2015,06,29,15,22,30.20
2015,06,29,15,23,30.10
2015,06,29,15,24,30.00
2015,06,29,15,25,30.00
2015,06,29,15,26,29.90
2015,06,29,15,27,29.90
2015,06,29,15,28,29.80
2015,06,29,15,29,29.80
2015,06,29,15,30,29.80
2015,06,29,15,31,29.80
2015,06,29,15,32,29.70
2015,06,29,15,33,29.70
2015,06,29,15,34,29.70
2015,06,29,15,35,29.70
2015,06,29,15,36,29.80
2015,06,29,15,37,29.80
2015,06,29,15,38,29.80
2015,06,29,15,39,29.90
2015,06,29,15,40,29.90
2015,06,29,15,41,29.90
2015,06,29,15,42,29.80
2015,06,29,15,43,29.80
2015,06,29,15,44,29.80
2015,06,29,15,45,29.70
2015,06,29,15,46,29.70
2015,06,29,15,47,29.60
2015,06,29,15,48,29.60
2015,06,29,15,49,29.40
2015,06,29,15,50,29.30
2015,06,29,15,51,29.30
2015,06,29,15,52,29.20
2015,06,29,15,53,29.20
2015,06,29,15,54,29.20
2015,06,29,15,55,29.10
2015,06,29,15,56,29.10
2015,06,29,15,57,29.10
2015,06,29,15,58,29.20
2015,06,29,15,59,29.20
2015,06,29,16,00,29.20
2015,06,29,16,01,29.30
2015,06,29,16,02,29.30
2015,06,29,16,03,29.40
2015,06,29,16,04,29.40
2015,06,29,16,05,29.40
2015,06,29,16,06,29.50
2015,06,29,16,07,29.60
2015,06,29,16,08,29.60
2015,06,29,16,09,29.60
2015,06,29,16,10,29.70
2015,06,29,16,11,29.70
2015,06,29,16,12,29.80
2015,06,29,16,13,29.80
2015,06,29,16,14,29.70
2015,06,29,16,15,29.70
2015,06,29,16,16,29.60
2015,06,29,16,17,29.60
2015,06,29,16,18,29.50
2015,06,29,16,19,29.40
2015,06,29,16,20,29.30
2015,06,29,16,21,29.20
2015,06,29,16,22,29.20
2015,06,29,16,23,29.10
2015,06,29,16,24,29.10
2015,06,29,16,25,29.10
2015,06,29,16,26,29.10
2015,06,29,16,27,29.00
2015,06,29,16,28,29.10
2015,06,29,16,29,29.10
2015,06,29,16,30,29.20
2015,06,29,16,31,29.20
2015,06,29,16,32,29.30
2015,06,29,16,33,29.40
2015,06,29,16,34,29.50
2015,06,29,16,35,29.40
2015,06,29,16,36,29.40
2015,06,29,16,37,29.30
2015,06,29,16,38,29.30
2015,06,29,16,39,29.30
2015,06,29,16,40,29.20
2015,06,29,16,41,29.20
2015,06,29,16,42,29.20
2015,06,29,16,43,29.10
2015,06,29,16,44,29.00
2015,06,29,16,45,28.90
2015,06,29,16,46,28.90
2015,06,29,16,47,28.90
2015,06,29,16,48,28.90
2015,06,29,16,49,28.90
2015,06,29,16,50,28.90
2015,06,29,16,51,28.90
2015,06,29,16,52,28.80
2015,06,29,16,53,28.80
2015,06,29,16,54,28.80
2015,06,29,16,55,28.70
2015,06,29,16,56,28.70
2015,06,29,16,57,28.70
2015,06,29,16,58,28.70
2015,06,29,16,59,28.70
2015,06,29,17,00,28.70
2015,06,29,17,01,28.70
2015,06,29,17,02,28.70
2015,06,29,17,03,28.80
2015,06,29,17,04,28.80
2015,06,29,17,05,28.80
2015,06,29,17,06,28.80
2015,06,29,17,07,28.80
2015,06,29,17,08,28.80
2015,06,29,17,09,28.80
2015,06,29,17,10,28.70
2015,06,29,17,11,28.80
2015,06,29,17,12,28.80
2015,06,29,17,13,28.80
2015,06,29,17,14,28.70
2015,06,29,17,15,28.70
2015,06,29,17,16,28.60
2015,06,29,17,17,28.60
2015,06,29,17,18,28.50
2015,06,29,17,19,28.40